Weather in Telyakovo

Russia / Tula Oblast     54°32′23″N   37°54′13″E
temp.,
°C
wind,
m/s
gust,
m/s
humid.,
%
clouds,
%
prec.,
mm/h
press.,
hPa
HPBL,
m
4 december, sat
sat400:000w51193100 1.2 1001688
03:00−1wsw6128973 1.2 1003632
06:00−3wsw714896 0.0 1004547
09:00−3wsw81485100 0.0 1007834
12:00−2wsw8128291 0.1 10081142
15:00−3w7138224 0.1 1010775
18:00−4wsw612895 0.0 1012522
21:00−4wsw51193100 0.0 1013379
5 december, sun
sun500:00−5wsw389677 0.0 1014248
03:00−3wsw3790100 0.1 1015663
06:00−3ssw3892100 0.0 1014255
09:00−3ssw4893100 0.0 1015281
12:00−1ssw4889100 0.0 1016386
15:00−1ssw378999 0.0 1016311
18:00−4s37935 0.0 1017141
21:00−4s3693100 0.0 1018124
6 december, mon
mon600:00−4s2592100 0.0 101894
03:00−4s2590100 0.0 1019106
06:00−4se2489100 0.0 101976
09:00−3se3786100 0.0 1020171
12:00−2se387998 0.0 1020325
15:00−3ese3781100 0.0 1019214
18:00−3ese378599 0.0 1020212
21:00−4ese498687 0.0 1019270
7 december, tue
tue700:00−3se41094100 0.0 1018331
03:00−2ese51196100 0.1 1017368
06:00−2ese71497100 0.6 1014462
09:00−1se81696100 1.9 1012564
12:000sse61398100 0.6 1010402
15:00+1s51299100 0.6 1010308
18:00+2s51299100 0.9 1009280
21:00+2ssw38100100 3.9 1010192
8 december, wed
wed800:00+1ssw24100100 3.6 101194
03:00+1nw23100100 7.2 101183
06:000nnw3699100 1.7 1012209
09:00−1n4798100 2.6 1014261
12:00−3n4796100 1.1 1015279
15:00−4n5996100 4.1 1016318
18:00−5nne61094100 1.5 1017353
21:00−5nne61195100 1.5 1018371